Showing default

ASTROCAST-0201, 48954

Orbit data source: Space-Track

ASTROCAST-0201, 48954 is a payload satellite owned by Astrocast (CH) in SSO that was launched on Wed, 30 Jun 2021 UTC via an FALCON 9 launch vehicle from the Air Force Eastern Test Range (AFETR). Payload-class satellites include a variety of spacecraft equipped with specific instruments for various scientific and technological missions. These include communications satellites like Starlink; space stations such as the ISS; scientific satellites like the Hubble; Earth observation satellites from companies like Planet Labs, Umbra, and HawkEye 360; GPS; miniature CubeSats for education and research; and military/defense satellites.

Not visible in the next 10 days
Identifier
48954, 2021-059CD
Orbit
SSO
Country
Flag of UnknownUnknown / SWTZ
Related business
Manufacturer
Astrocast
Mission
Operational Commercial Communications
Bus & Motor
CUBESAT 3U, Unknown motor
Mass
5 kg wet, 5 kg dry
Launch date (UTC)
2021-06-30 (4 years ago)
Launch vehicle
FALCON 9
Launch site
Air Force Eastern Test Range (AFETR)
Object type
Payload
Rocket body
Debris
Shape & HBR
Box, 0.1 m
Radar Cross Section
0.035 m², Medium (>0.1 m² and < 1m²)

Expand to show TLE details & history
Last TLE update: 15 hours ago

TLE from 15 hours ago
0 ASTROCAST-0201
1 48954U 21059CD  25309.03624618  .00081199  00000-0  60520-3 0  9990
2 48954  97.6483 129.4706 0005948 164.3578 195.7870 15.72502960243269
Epoch: 2025-11-05T00:52Z
TLE epoch observation values (Epoch: 2025-11-05T00:52:11.669Z)
Latitude
-0.00002°
Longitude
71.9073°
Altitude
358.753 km
Speed
7.692 km/s
True Right ascension
08h 37m 52s
True Declination
0° 00' 00"
Sunlit
Object was in daylight at epoch
Visualization orbit readout
Latitude
Unknown
Longitude
Unknown
Altitude
Unknown
Speed
Unknown
Apparent Right ascension
Unknown
Apparent Declination
Unknown
Sunlit
N/A
Visualization observer readout
Local Sidereal Time
11:23:42
Azimuth
Unknown
Elevation
Unknown
Doppler factor
Unknown
Orbital elements
Apogee altitude
352.654 km
Perigee altitude
344.652 km
Semi-major axis
6,726.79 km
Eccentricity
0.00059
Inclination
97.6483°
RAAN
129.4706°
Arg. of periapsis
164.3578°
True anomaly
195.76847°
Mean anomaly
195.787°
Eccentric anomaly
195.77773°
Mean motion
3.93397 °/min
Orbital period
91.51 mins
BSTAR
0.0006052
Loading maneuver chart data...
Computing Atmospheric mass density...

Documentation

Showing up to 5 results
|